[[{"header":{"parameterUnit":"m.s-1","parameterCategory":1,"la1":30.2991,"la2":30.254,"lo1":-89.0895,"lo2":-89.0444,"dy":0.0017,"dx":0.0017,"nx":28,"ny":28,"refTime":"2024-03-06T03:00:00:Z","depth":0,"parameterNumber":2,"parameterNumberName":"U-component_of_WINDS"},"data":[0,0,0,0,0,0,0,0,0,0,0,0,0,0,0,0,0,0,0,0,0,0,0,0,0,0,0,0,0,0,0,0,0,0,0,0,0,0,0,0,0,0,0,0,0,0,0,0,0,0,0,0,0,0,0,0,0,0,1.3167,1.3168,0,1.3266,1.3267,1.3268,1.3299,1.3298,1.3298,1.3297,1.3402,1.3405,1.3408,0,0,0,0,0,0,0,0,0,0,0,0,0,1.301,1.3013,1.3167,1.3168,1.317,1.3266,1.3267,1.3269,1.3299,1.3298,1.3297,1.3297,1.3401,1.3404,1.3408,0,0,0,0,0,0,0,0,0,0,0,0,0,1.3091,1.3014,1.3167,1.3196,1.32,1.3266,1.3267,1.3269,1.3299,1.3298,1.3297,1.3297,1.3399,1.3404,1.3409,1.3454,0,0,1.3424,1.3426,0,0,0,0,0,0,0,0,1.3086,1.3096,1.3191,1.3194,1.3198,1.3269,1.325,1.3331,1.3299,1.3261,1.3297,1.3296,1.3358,1.3367,1.3387,1.3459,1.3463,1.3424,1.3427,1.3429,1.3431,0,0,0,0,0,0,0,1.308,1.3092,1.3206,1.3192,1.3197,1.3206,1.3217,1.3266,1.3313,1.3265,1.3267,1.3278,1.336,1.3382,1.339,1.3465,1.3424,1.3428,1.3431,1.3433,1.3582,1.3583,0,0,0,0,0,0,1.3069,1.3087,1.3203,1.3209,1.3139,1.321,1.3221,1.3247,1.3312,1.3322,1.3279,1.3279,1.3374,1.3384,1.3393,1.3453,1.3429,1.3434,1.3437,1.3581,1.3583,1.3584,0,0,0,0,0,0,1.3066,1.3079,1.3199,1.3149,1.3165,1.3213,1.3242,1.325,1.3271,1.3323,1.3332,1.3292,1.3374,1.3386,1.3439,1.3457,1.3436,1.344,1.358,1.3582,1.3583,1.357,0,0,0,0,0,0,1.3061,1.3078,1.3094,1.3149,1.3168,1.3242,1.3243,1.3252,1.3279,1.3281,1.3338,1.3347,1.3374,1.3432,1.3444,1.3463,1.3444,1.3579,1.3581,1.3583,1.3569,1.3571,1.3573,0,0,0,0,0,1.3055,1.3086,1.3094,1.3108,1.3189,1.3243,1.3253,1.3284,1.328,1.3298,1.3332,1.3345,1.3452,1.3437,1.3451,1.3472,1.3578,1.358,1.3582,1.3568,1.3571,1.3573,0,0,0,0,0,0,1.3032,1.3094,1.3104,1.3153,1.3192,1.3248,1.3271,1.3285,1.3326,1.3326,1.3363,1.3376,1.3427,1.3454,1.3436,1.352,1.3516,1.3521,1.35,1.3503,1.3505,1.3498,1.3448,0,0,0,0,0,1.3033,1.307,1.3123,1.3161,1.318,1.3222,1.3247,1.3267,1.331,1.3327,1.3364,1.3406,1.345,1.3478,1.3521,1.3573,1.3588,1.3595,1.3596,1.3597,1.3602,1.3635,1.364,1.3591,1.3591,1.3591,0,0,1.3035,1.3073,1.3094,1.3158,1.319,1.323,1.3236,1.3277,1.3308,1.3333,1.3386,1.3415,1.3464,1.3518,1.3543,1.3543,1.3619,1.36,1.3601,1.3605,1.3638,1.3643,1.3647,1.3593,1.3593,1.3592,0,0,1.3058,1.309,1.3127,1.316,1.321,1.3238,1.3246,1.33,1.3321,1.3373,1.3394,1.3432,1.3506,1.3541,1.3569,1.3609,1.3623,1.3622,1.3631,1.3663,1.3667,1.367,1.3687,1.3693,1.3626,1.3626,1.3626,0,1.3055,1.3114,1.3145,1.3186,1.3214,1.3239,1.3278,1.3309,1.337,1.339,1.3388,1.3483,1.3518,1.3582,1.3592,1.3612,1.3626,1.3616,1.3663,1.3667,1.3671,1.3688,1.3694,1.3626,1.3626,1.3626,1.3626,0,1.3108,1.315,1.3174,1.3232,1.3263,1.3303,1.3342,1.337,1.3389,1.3417,1.3473,1.3516,1.3569,1.3586,1.3603,1.3653,1.3651,1.3656,1.3652,1.3675,1.3692,1.3698,1.3625,1.3625,1.3625,1.3625,0,0,1.312,1.3196,1.3204,1.3233,1.329,1.3323,1.3366,1.3417,1.3442,1.3484,1.3522,1.3585,1.3591,1.3622,1.3645,1.3672,1.3705,1.3674,1.3676,1.368,1.3766,1.3763,1.377,1.3714,1.3716,1.3717,1.3762,0,1.3153,1.3227,1.3258,1.3319,1.336,1.3385,1.3422,1.3463,1.3491,1.3531,1.3563,1.3608,1.3611,1.363,1.3659,1.3695,1.3723,1.3692,1.3753,1.3755,1.3741,1.3778,1.3775,1.3815,1.3769,1.377,1.377,0,1.32,1.3243,1.3308,1.3364,1.3382,1.3414,1.3466,1.3502,1.355,1.357,1.3606,1.3627,1.3675,1.3668,1.3736,1.3715,1.3742,1.3763,1.3766,1.3774,1.3765,1.3789,1.3829,1.3836,1.378,1.378,1.3779,0,1.3205,1.3278,1.3328,1.3351,1.3416,1.3439,1.3467,1.3514,1.3544,1.359,1.361,1.3661,1.3689,1.3729,1.3764,1.3755,1.3831,1.3825,1.385,1.385,1.3866,1.3865,1.3913,1.388,1.388,1.388,1.388,0,1.3239,1.3279,1.3331,1.3362,1.3408,1.3444,1.3489,1.352,1.3562,1.3601,1.3625,1.3662,1.3706,1.3749,1.3777,1.3831,1.3843,1.3862,1.3869,1.3861,1.3859,1.388,1.3879,1.3881,1.3881,1.3881,1.388,0,1.3252,1.3288,1.3344,1.3402,1.3417,1.3449,1.35,1.3532,1.3562,1.3611,1.3625,1.3673,1.3725,1.3765,1.3832,1.3851,1.391,1.3916,1.3893,1.3897,1.3921,1.3919,1.3986,1.3997,1.3955,1.3955,1.3955,0,1.3272,1.3303,1.3364,1.3392,1.342,1.3464,1.3495,1.3532,1.3563,1.3622,1.3648,1.3701,1.3746,1.3828,1.3871,1.3924,1.3933,1.3953,1.3941,1.3933,1.3937,1.3935,1.394,1.3955,1.3955,1.3955,1.3956,0,1.3305,1.3322,1.3365,1.3415,1.3451,1.3493,1.3535,1.3557,1.3602,1.3637,1.369,1.3725,1.3794,1.3848,1.3905,1.3937,1.3955,1.3959,1.3968,1.396,1.3947,1.3957,1.39,1.3957,1.3957,1.3957,1.3957,1.3957,1.3324,1.3354,1.3402,1.345,1.3486,1.3525,1.3559,1.3594,1.3639,1.3698,1.3717,1.3773,1.3823,1.3902,1.3935,1.3981,1.3981,1.3993,1.3997,1.4,1.4,1.3938,1.3991,1.3991,1.3991,1.3991,1.3991,0,1.336,1.3392,1.3436,1.3495,1.3533,1.3545,1.3594,1.3626,1.3674,1.3719,1.3763,1.3826,1.3879,1.3926,1.3982,1.401,1.402,1.4024,1.4023,1.4031,1.3995,1.3983,1.4015,1.4015,1.4015,1.4015,1.4015,1.4015,1.3383,1.3435,1.3459,1.353,1.3563,1.3617,1.3644,1.3682,1.3718,1.3787,1.3831,1.3861,1.3909,1.3969,1.4019,1.4032,1.4053,1.4055,1.407,1.4036,1.4033,1.403,1.4019,1.4058,1.4059,1.4102,1.4103,1.4103]},{"header":{"parameterUnit":"m.s-1","parameterCategory":1,"la1":30.2991,"la2":30.254,"lo1":-89.0895,"lo2":-89.0444,"dy":0.0017,"dx":0.0017,"nx":28,"ny":28,"refTime":"2024-03-06T03:00:00:Z","depth":0,"parameterNumber":3,"parameterNumberName":"V-component_of_WINDS"},"data":[0,0,0,0,0,0,0,0,0,0,0,0,0,0,0,0,0,0,0,0,0,0,0,0,0,0,0,0,0,0,0,0,0,0,0,0,0,0,0,0,0,0,0,0,0,0,0,0,0,0,0,0,0,0,0,0,0,0,-2.6715,-2.6716,0,-2.6761,-2.6762,-2.6762,-2.6844,-2.6845,-2.6847,-2.6848,-2.689,-2.689,-2.6889,0,0,0,0,0,0,0,0,0,0,0,0,0,-2.6695,-2.6695,-2.6715,-2.6716,-2.6716,-2.6761,-2.6762,-2.6762,-2.6843,-2.6845,-2.6847,-2.6849,-2.689,-2.689,-2.6889,0,0,0,0,0,0,0,0,0,0,0,0,0,-2.6719,-2.6695,-2.6715,-2.6762,-2.6767,-2.6761,-2.6762,-2.6762,-2.6843,-2.6845,-2.6848,-2.685,-2.689,-2.689,-2.6889,-2.6839,0,0,-2.6888,-2.6887,0,0,0,0,0,0,0,0,-2.6717,-2.6719,-2.6755,-2.6759,-2.6764,-2.6799,-2.677,-2.6788,-2.6842,-2.6814,-2.6848,-2.6851,-2.6857,-2.686,-2.6863,-2.6841,-2.6843,-2.6888,-2.6887,-2.6887,-2.6887,0,0,0,0,0,0,0,-2.6716,-2.6718,-2.6733,-2.6755,-2.6761,-2.6781,-2.6786,-2.6774,-2.6822,-2.6817,-2.6823,-2.6827,-2.6861,-2.6863,-2.6865,-2.6843,-2.6888,-2.6887,-2.6887,-2.6887,-2.6785,-2.6783,0,0,0,0,0,0,-2.6708,-2.6716,-2.6732,-2.6735,-2.6746,-2.6779,-2.6786,-2.6786,-2.6822,-2.683,-2.6825,-2.6831,-2.6863,-2.6865,-2.6866,-2.6812,-2.6887,-2.6886,-2.6886,-2.6788,-2.6785,-2.6782,0,0,0,0,0,0,-2.6707,-2.6708,-2.673,-2.6727,-2.6731,-2.6777,-2.6776,-2.6785,-2.6788,-2.6829,-2.6837,-2.682,-2.6865,-2.6867,-2.6846,-2.6814,-2.6886,-2.6886,-2.679,-2.6787,-2.6784,-2.67,0,0,0,0,0,0,-2.6706,-2.6707,-2.6689,-2.6726,-2.6731,-2.6709,-2.6774,-2.6784,-2.6788,-2.6796,-2.6826,-2.6833,-2.6867,-2.6847,-2.6846,-2.6815,-2.6885,-2.6793,-2.6789,-2.6785,-2.6706,-2.6694,-2.6684,0,0,0,0,0,-2.6705,-2.6662,-2.6688,-2.6689,-2.6709,-2.6707,-2.671,-2.6752,-2.6785,-2.6767,-2.6793,-2.6832,-2.6818,-2.6844,-2.6843,-2.6812,-2.6796,-2.679,-2.6785,-2.6711,-2.6697,-2.6685,0,0,0,0,0,0,-2.6617,-2.6667,-2.6696,-2.6664,-2.6681,-2.6721,-2.6699,-2.6735,-2.6741,-2.6748,-2.6798,-2.6804,-2.6777,-2.6793,-2.682,-2.6767,-2.6813,-2.6808,-2.6757,-2.6744,-2.6733,-2.6729,-2.6885,0,0,0,0,0,-2.6594,-2.6589,-2.6634,-2.6601,-2.6608,-2.6652,-2.6653,-2.6684,-2.6703,-2.6709,-2.6734,-2.675,-2.675,-2.6748,-2.6749,-2.671,-2.6718,-2.6688,-2.6677,-2.6668,-2.6662,-2.6644,-2.6632,-2.6765,-2.6765,-2.6765,0,0,-2.6546,-2.6573,-2.6566,-2.6584,-2.6601,-2.6594,-2.6657,-2.6647,-2.6643,-2.6707,-2.669,-2.6709,-2.673,-2.67,-2.6688,-2.6712,-2.6628,-2.6661,-2.6654,-2.6653,-2.6638,-2.6625,-2.6614,-2.6761,-2.6762,-2.6762,0,0,-2.6455,-2.6475,-2.6452,-2.6468,-2.6494,-2.6524,-2.6519,-2.6554,-2.657,-2.6554,-2.6604,-2.6599,-2.6596,-2.661,-2.6617,-2.6536,-2.6572,-2.6535,-2.6477,-2.646,-2.6449,-2.644,-2.6412,-2.6401,-2.6529,-2.6529,-2.6529,0,-2.6391,-2.6385,-2.6434,-2.6422,-2.6429,-2.6491,-2.6467,-2.648,-2.6504,-2.6507,-2.6535,-2.6536,-2.6554,-2.6529,-2.651,-2.6513,-2.6508,-2.6531,-2.6447,-2.6438,-2.6431,-2.6404,-2.6394,-2.6525,-2.6525,-2.6526,-2.6526,0,-2.6306,-2.6301,-2.6279,-2.6304,-2.6308,-2.629,-2.6336,-2.6335,-2.6367,-2.6394,-2.6378,-2.6403,-2.6412,-2.6409,-2.6438,-2.6389,-2.6403,-2.6438,-2.6486,-2.6413,-2.6389,-2.6379,-2.6518,-2.652,-2.6521,-2.6522,0,0,-2.6157,-2.6213,-2.6204,-2.6218,-2.6253,-2.6249,-2.6235,-2.6247,-2.6245,-2.626,-2.6249,-2.6248,-2.6282,-2.629,-2.6322,-2.6306,-2.6243,-2.6344,-2.6345,-2.6324,-2.6191,-2.6164,-2.6151,-2.6268,-2.6266,-2.6265,-2.6189,0,-2.6073,-2.6053,-2.6099,-2.6068,-2.6064,-2.6125,-2.6113,-2.6133,-2.6159,-2.616,-2.6189,-2.6187,-2.6232,-2.6237,-2.6225,-2.6253,-2.6216,-2.6259,-2.6258,-2.6257,-2.625,-2.6139,-2.6109,-2.6037,-2.618,-2.6179,-2.6177,0,-2.5972,-2.5986,-2.5955,-2.5995,-2.5996,-2.5984,-2.6,-2.6,-2.6024,-2.6045,-2.6055,-2.6095,-2.6084,-2.6131,-2.6117,-2.6145,-2.6148,-2.6162,-2.616,-2.616,-2.6212,-2.6136,-2.6014,-2.6003,-2.6163,-2.6164,-2.6165,0,-2.5867,-2.5878,-2.5862,-2.5871,-2.5917,-2.5908,-2.5927,-2.5954,-2.5959,-2.5973,-2.5977,-2.5988,-2.5994,-2.6002,-2.6044,-2.6074,-2.6025,-2.6075,-2.6041,-2.6039,-2.6026,-2.6026,-2.5902,-2.6028,-2.6029,-2.6029,-2.6029,0,-2.5768,-2.5746,-2.5816,-2.5805,-2.5783,-2.5837,-2.5814,-2.5839,-2.5863,-2.5859,-2.5912,-2.5906,-2.5962,-2.5963,-2.5996,-2.5979,-2.5981,-2.5997,-2.6006,-2.5992,-2.599,-2.5993,-2.5999,-2.6026,-2.6027,-2.6027,-2.6028,0,-2.5645,-2.5691,-2.5677,-2.5724,-2.5736,-2.5718,-2.5758,-2.575,-2.5782,-2.5775,-2.5777,-2.5825,-2.5829,-2.5873,-2.5885,-2.5907,-2.5878,-2.5896,-2.587,-2.5876,-2.5839,-2.5842,-2.5713,-2.5699,-2.5834,-2.5832,-2.5831,0,-2.5578,-2.5564,-2.5611,-2.5613,-2.563,-2.5632,-2.5639,-2.5693,-2.5697,-2.5727,-2.5716,-2.5725,-2.5734,-2.5738,-2.5773,-2.5784,-2.5803,-2.5757,-2.5804,-2.5792,-2.5802,-2.5802,-2.5801,-2.5746,-2.5744,-2.5743,-2.5742,0,-2.5455,-2.548,-2.5488,-2.5506,-2.5513,-2.5528,-2.5547,-2.5545,-2.5604,-2.5607,-2.5613,-2.5621,-2.5636,-2.5644,-2.5662,-2.5681,-2.572,-2.5727,-2.572,-2.5705,-2.569,-2.5698,-2.5842,-2.5729,-2.573,-2.5731,-2.5732,-2.5733,-2.5358,-2.535,-2.5382,-2.5391,-2.5412,-2.5429,-2.5425,-2.5458,-2.5465,-2.5483,-2.5514,-2.5516,-2.5544,-2.5573,-2.5588,-2.559,-2.5614,-2.5603,-2.56,-2.5596,-2.5589,-2.5691,-2.5594,-2.5594,-2.5595,-2.5595,-2.5595,0,-2.5238,-2.5264,-2.5271,-2.5298,-2.5305,-2.5346,-2.537,-2.5372,-2.5374,-2.5398,-2.5408,-2.5417,-2.5426,-2.5464,-2.5478,-2.5472,-2.5491,-2.5474,-2.5474,-2.5478,-2.5567,-2.5572,-2.5459,-2.5459,-2.5459,-2.5459,-2.5459,-2.5459,-2.5176,-2.5164,-2.5193,-2.5192,-2.5218,-2.5222,-2.5232,-2.5249,-2.5269,-2.5276,-2.5286,-2.5312,-2.5342,-2.5359,-2.5369,-2.5381,-2.5383,-2.5359,-2.5376,-2.5458,-2.5471,-2.5484,-2.5489,-2.5359,-2.5359,-2.5287,-2.5286,-2.5286]}]]